Back to catalog

ONEWEB-0556

AliveCommunicationsPO
NORAD 55798·PAYLOAD·🇬🇧 United Kingdom

Launched Mar 9, 2023 from Cape Canaveral Space Force Station

Loading…

Next Passes (next 24 hours)

TLE

FreshSource: CelesTrak SupGP

Epoch: Sep 14, 2026, 17:28 UTC

1 55798C 23029C   26257.72829120 -.00000435  00000+0 -10722-2 0  2577
2 55798  87.9125 256.5985 0002889  90.2176  19.7887 13.20769447    14

Track ONEWEB-0556 in real time with AllMySat

Download on the App Store